WZZ2EX LGTS-LHBP

Flight info

Callsign WZZ2EX
Flight time N/A
Altitude 36000
Route FSK UN128 RUGAS DCT SIN DCT RAXAD DCT OKLOP DCT MAVIT DCT KEZAL
Aircraft A321/M-SDE1E2E3FGIJ1J4RWXY/LB1

Departure

Time 2026-04-29 11:24
Airport Thessaloniki Macedonia International Airport (LGTS)

Arrival

Time N/A
Airport Budapest Liszt Ferenc International Airport (LHBP)
Time Latitude Longitude Altitude Speed Heading
2026-04-29 10:59 40.52404 22.97464 29 ft 0 kts 45°
2026-04-29 11:16 40.52403 22.97463 28 ft 2 kts 45°
2026-04-29 11:17 40.52388 22.97442 28 ft 3 kts 56°
2026-04-29 11:17 40.52378 22.97415 28 ft 3 kts 78°
2026-04-29 11:17 40.52378 22.97388 28 ft 3 kts 119°
2026-04-29 11:17 40.52385 22.97374 28 ft 1 kts 135°
2026-04-29 11:18 40.52386 22.97373 28 ft 0 kts 135°
2026-04-29 11:19 40.52375 22.97387 28 ft 4 kts 135°
2026-04-29 11:20 40.52345 22.97427 28 ft 8 kts 135°
2026-04-29 11:20 40.52297 22.97489 28 ft 10 kts 135°
2026-04-29 11:20 40.52242 22.97561 28 ft 12 kts 135°
2026-04-29 11:20 40.52184 22.97634 28 ft 6 kts 138°
2026-04-29 11:21 40.52146 22.97676 28 ft 8 kts 141°
2026-04-29 11:21 40.52114 22.97710 29 ft 7 kts 142°
2026-04-29 11:21 40.52066 22.97758 29 ft 10 kts 143°
2026-04-29 11:21 40.52014 22.97823 29 ft 11 kts 128°
2026-04-29 11:22 40.51985 22.97927 29 ft 15 kts 103°
2026-04-29 11:22 40.51960 22.98073 29 ft 19 kts 104°
2026-04-29 11:22 40.51919 22.98276 29 ft 26 kts 104°
2026-04-29 11:22 40.51879 22.98498 29 ft 23 kts 103°
2026-04-29 11:23 40.51836 22.98683 28 ft 17 kts 134°
2026-04-29 11:23 40.51723 22.98685 29 ft 17 kts 201°
2026-04-29 11:23 40.51694 22.98579 28 ft 11 kts 284°
2026-04-29 11:23 40.51730 22.98385 29 ft 51 kts 283°
2026-04-29 11:24 40.51872 22.97620 29 ft 121 kts 284°
2026-04-29 11:24 40.52127 22.96298 40 ft 174 kts 285°
2026-04-29 11:24 40.52455 22.94708 586 ft 182 kts 288°
2026-04-29 11:24 40.52840 22.93105 1295 ft 186 kts 290°
2026-04-29 11:25 40.53249 22.91502 1918 ft 184 kts 290°
2026-04-29 11:25 40.53652 22.89910 2532 ft 184 kts 300°
2026-04-29 11:25 40.54542 22.88694 3026 ft 191 kts 336°
2026-04-29 11:25 40.55823 22.88237 3557 ft 194 kts
2026-04-29 11:26 40.58520 22.88688 4687 ft 196 kts 11°
2026-04-29 11:26 40.59874 22.88959 5258 ft 197 kts 12°
2026-04-29 11:26 40.61221 22.89300 5841 ft 198 kts 13°
2026-04-29 11:27 40.62561 22.89708 6440 ft 198 kts 16°
2026-04-29 11:27 40.63889 22.90184 7011 ft 198 kts 17°
2026-04-29 11:27 40.65236 22.90615 7469 ft 204 kts
2026-04-29 11:27 40.66720 22.90853 7652 ft 225 kts
2026-04-29 11:28 40.68359 22.91062 7783 ft 249 kts
2026-04-29 11:28 40.70173 22.91310 8001 ft 274 kts
2026-04-29 11:28 40.72111 22.91617 8534 ft 285 kts
2026-04-29 11:28 40.74097 22.91968 9269 ft 290 kts
2026-04-29 11:29 40.75423 22.92216 9771 ft 293 kts
2026-04-29 11:29 40.77455 22.92612 10377 ft 302 kts
2026-04-29 11:29 40.79613 22.93039 10566 ft 325 kts
2026-04-29 11:29 40.81921 22.93502 10821 ft 343 kts
2026-04-29 11:30 40.84304 22.93984 11421 ft 349 kts
2026-04-29 11:30 40.86719 22.94476 12114 ft 352 kts
2026-04-29 11:30 40.89149 22.94974 12823 ft 355 kts
2026-04-29 11:30 40.91604 22.95473 13522 ft 358 kts
2026-04-29 11:31 40.94076 22.95974 14181 ft 361 kts
2026-04-29 11:31 40.96572 22.96476 14807 ft 364 kts
2026-04-29 11:31 40.99083 22.96980 15429 ft 367 kts
2026-04-29 11:31 41.01613 22.97486 16060 ft 369 kts
2026-04-29 11:32 41.04166 22.97997 16690 ft 372 kts
2026-04-29 11:32 41.06739 22.98387 17293 ft 372 kts 358°
2026-04-29 11:32 41.09313 22.98127 17894 ft 371 kts 346°
2026-04-29 11:32 41.11778 22.97170 18480 ft 369 kts 334°
2026-04-29 11:33 41.14039 22.95571 18991 ft 368 kts 324°
2026-04-29 11:33 41.16188 22.93700 19501 ft 371 kts 324°
2026-04-29 11:33 41.18355 22.91822 20041 ft 373 kts 324°
2026-04-29 11:33 41.20539 22.89932 20596 ft 376 kts 324°
2026-04-29 11:34 41.22737 22.88029 21124 ft 378 kts 324°
2026-04-29 11:34 41.24945 22.86113 21659 ft 381 kts 324°
2026-04-29 11:34 41.27167 22.84179 22179 ft 383 kts 324°
2026-04-29 11:34 41.29405 22.82229 22678 ft 386 kts 324°
2026-04-29 11:35 41.31656 22.80268 23178 ft 388 kts 324°
2026-04-29 11:35 41.34007 22.78448 23635 ft 394 kts 331°
2026-04-29 11:35 41.36480 22.76854 24053 ft 396 kts 331°
2026-04-29 11:35 41.38966 22.75252 24477 ft 398 kts 331°
2026-04-29 11:36 41.41460 22.73640 24884 ft 400 kts 331°
2026-04-29 11:36 41.43966 22.72015 25278 ft 401 kts 331°
2026-04-29 11:36 41.46481 22.70380 25658 ft 403 kts 330°
2026-04-29 11:36 41.49011 22.68733 26047 ft 405 kts 330°
2026-04-29 11:37 41.51551 22.67079 26426 ft 407 kts 330°
2026-04-29 11:37 41.54104 22.65417 26823 ft 409 kts 330°
2026-04-29 11:37 41.56665 22.63748 27233 ft 410 kts 330°
2026-04-29 11:37 41.59238 22.62072 27621 ft 412 kts 330°
2026-04-29 11:38 41.61817 22.60391 28018 ft 414 kts 330°
2026-04-29 11:38 41.64409 22.58702 28361 ft 416 kts 330°
2026-04-29 11:38 41.67017 22.56997 28719 ft 418 kts 330°
2026-04-29 11:38 41.69630 22.55282 29057 ft 419 kts 330°
2026-04-29 11:39 41.72221 22.53584 29375 ft 421 kts 330°
2026-04-29 11:39 41.74894 22.51833 29718 ft 423 kts 330°
2026-04-29 11:39 41.77510 22.50119 30076 ft 425 kts 330°
2026-04-29 11:39 41.80167 22.48375 30427 ft 426 kts 330°
2026-04-29 11:40 41.82834 22.46622 30789 ft 426 kts 330°
2026-04-29 11:40 41.85490 22.44879 31256 ft 424 kts 330°
2026-04-29 11:40 41.88133 22.43142 31697 ft 422 kts 330°
2026-04-29 11:40 41.90764 22.41409 32119 ft 420 kts 330°
2026-04-29 11:41 41.93376 22.39683 32531 ft 418 kts 330°
2026-04-29 11:41 41.95983 22.37960 32927 ft 417 kts 330°
2026-04-29 11:41 41.98648 22.36404 33320 ft 419 kts 337°
2026-04-29 11:41 42.01449 22.35299 33728 ft 419 kts 340°
2026-04-29 11:42 42.04254 22.34260 34121 ft 418 kts 340°
2026-04-29 11:42 42.07054 22.33222 34444 ft 417 kts 340°
2026-04-29 11:42 42.09843 22.32181 34786 ft 416 kts 339°
2026-04-29 11:42 42.12629 22.31137 35118 ft 415 kts 339°
2026-04-29 11:43 42.15405 22.30094 35455 ft 414 kts 339°
2026-04-29 11:43 42.18176 22.29051 35778 ft 413 kts 339°
2026-04-29 11:43 42.20938 22.28014 36055 ft 413 kts 339°
2026-04-29 11:43 42.23695 22.26982 36087 ft 410 kts 339°
2026-04-29 11:44 42.29182 22.24923 36088 ft 409 kts 339°
2026-04-29 11:44 42.34605 22.22693 36087 ft 406 kts 336°
2026-04-29 11:45 42.39920 22.20131 36087 ft 405 kts 335°
2026-04-29 11:45 42.45223 22.17514 36091 ft 406 kts 335°
2026-04-29 11:46 42.50547 22.14963 36096 ft 406 kts 335°
2026-04-29 11:46 42.55888 22.12444 36101 ft 406 kts 336°
2026-04-29 11:47 42.61229 22.09918 36107 ft 406 kts 335°
2026-04-29 11:47 42.66566 22.07384 36108 ft 406 kts 335°
2026-04-29 11:48 42.71910 22.04834 36113 ft 405 kts 335°
2026-04-29 11:48 42.77236 22.02292 36112 ft 406 kts 335°
2026-04-29 11:49 42.82560 21.99745 36115 ft 406 kts 335°
2026-04-29 11:49 42.87882 21.97197 36137 ft 405 kts 335°
2026-04-29 11:50 42.93198 21.94641 36124 ft 405 kts 335°
2026-04-29 11:50 42.98505 21.92086 36120 ft 404 kts 335°
2026-04-29 11:51 43.03808 21.89532 36129 ft 404 kts 335°
2026-04-29 11:51 43.09112 21.86977 36144 ft 404 kts 335°
2026-04-29 11:52 43.14420 21.84416 36126 ft 404 kts 335°
2026-04-29 11:52 43.19716 21.81851 36126 ft 404 kts 335°
2026-04-29 11:53 43.25013 21.79278 36128 ft 404 kts 335°
2026-04-29 11:53 43.30272 21.76717 36144 ft 404 kts 335°
2026-04-29 11:54 43.35568 21.74132 36138 ft 404 kts 335°
2026-04-29 11:54 43.40858 21.71552 36135 ft 404 kts 335°
2026-04-29 11:55 43.46150 21.68968 36131 ft 403 kts 335°
2026-04-29 11:55 43.51437 21.66375 36149 ft 403 kts 334°
2026-04-29 11:56 43.56717 21.63780 36143 ft 403 kts 334°
2026-04-29 11:56 43.61999 21.61185 36146 ft 403 kts 334°
2026-04-29 11:57 43.67275 21.58580 36147 ft 403 kts 334°
2026-04-29 11:57 43.72574 21.55968 36177 ft 403 kts 334°
2026-04-29 11:58 43.77844 21.53362 36169 ft 402 kts 334°
2026-04-29 11:58 43.83109 21.50755 36166 ft 402 kts 334°
2026-04-29 11:59 43.88367 21.48148 36168 ft 401 kts 334°
2026-04-29 11:59 43.93588 21.45551 36183 ft 401 kts 334°
2026-04-29 12:00 43.98839 21.42933 36183 ft 401 kts 334°
2026-04-29 12:00 44.04082 21.40317 36180 ft 400 kts 334°
2026-04-29 12:01 44.09324 21.37693 36181 ft 400 kts 334°
2026-04-29 12:01 44.14598 21.35047 36185 ft 400 kts 334°
2026-04-29 12:02 44.20028 21.33172 36175 ft 411 kts 348°
2026-04-29 12:02 44.25755 21.33008 36172 ft 415 kts 351°
2026-04-29 12:03 44.31533 21.32892 36174 ft 416 kts 351°
2026-04-29 12:03 44.37315 21.32770 36201 ft 416 kts 351°
2026-04-29 12:04 44.43104 21.32639 36195 ft 416 kts 351°
2026-04-29 12:04 44.48895 21.32502 36191 ft 416 kts 351°
2026-04-29 12:05 44.54692 21.32379 36223 ft 416 kts 351°
2026-04-29 12:05 44.60473 21.32255 36183 ft 415 kts 351°
2026-04-29 12:06 44.66255 21.32132 36186 ft 416 kts 351°
2026-04-29 12:06 44.72040 21.32010 36187 ft 416 kts 351°
2026-04-29 12:07 44.77827 21.31881 36173 ft 416 kts 351°
2026-04-29 12:07 44.83617 21.31748 36176 ft 416 kts 351°
2026-04-29 12:08 44.89408 21.31621 36187 ft 416 kts 351°
2026-04-29 12:08 44.95202 21.31490 36220 ft 416 kts 351°
2026-04-29 12:09 45.01001 21.31366 36200 ft 416 kts 351°
2026-04-29 12:09 45.06790 21.31236 36191 ft 416 kts 351°
2026-04-29 12:10 45.12583 21.31104 36187 ft 416 kts 351°
2026-04-29 12:10 45.18377 21.30976 36206 ft 416 kts 351°
2026-04-29 12:11 45.24111 21.30430 36193 ft 406 kts 340°
2026-04-29 12:11 45.29384 21.27933 36179 ft 398 kts 332°
2026-04-29 12:12 45.33681 21.25579 36183 ft 399 kts 333°
2026-04-29 12:12 45.39745 21.22289 36197 ft 400 kts 332°
2026-04-29 12:13 45.44061 21.19937 36188 ft 400 kts 332°
2026-04-29 12:13 45.49254 21.17094 36186 ft 400 kts 332°
2026-04-29 12:14 45.54450 21.14241 36190 ft 400 kts 332°
2026-04-29 12:14 45.59651 21.11390 36174 ft 401 kts 332°
2026-04-29 12:15 45.64849 21.08534 36210 ft 399 kts 333°
2026-04-29 12:15 45.70030 21.05668 36200 ft 399 kts 332°
2026-04-29 12:16 45.75212 21.02798 36192 ft 399 kts 333°
2026-04-29 12:16 45.80400 20.99932 36194 ft 399 kts 333°
2026-04-29 12:17 45.85586 20.97064 36208 ft 399 kts 333°
2026-04-29 12:17 45.90749 20.94192 36186 ft 398 kts 333°
2026-04-29 12:18 45.95906 20.91317 36197 ft 398 kts 333°
2026-04-29 12:18 46.01068 20.88449 36203 ft 398 kts 333°
2026-04-29 12:19 46.06228 20.85574 36208 ft 398 kts 333°
2026-04-29 12:19 46.11382 20.82682 36230 ft 398 kts 333°
2026-04-29 12:20 46.16539 20.79768 36232 ft 398 kts 333°
2026-04-29 12:20 46.21703 20.76863 36223 ft 399 kts 333°
2026-04-29 12:21 46.26874 20.73951 36205 ft 399 kts 333°
2026-04-29 12:21 46.32046 20.71040 36245 ft 399 kts 333°
2026-04-29 12:22 46.37219 20.68114 36218 ft 399 kts 333°
2026-04-29 12:22 46.42400 20.65173 36216 ft 400 kts 333°
2026-04-29 12:23 46.47586 20.62225 36216 ft 400 kts 333°
2026-04-29 12:23 46.52739 20.59296 36215 ft 401 kts 333°
2026-04-29 12:24 46.57931 20.56337 36242 ft 401 kts 333°
2026-04-29 12:24 46.63122 20.53366 36233 ft 401 kts 333°
2026-04-29 12:25 46.68315 20.50392 35787 ft 404 kts 333°
2026-04-29 12:25 46.73624 20.47329 34154 ft 413 kts 332°
2026-04-29 12:26 46.76284 20.45802 33622 ft 407 kts 332°
2026-04-29 12:26 46.78901 20.44303 33167 ft 401 kts 332°
2026-04-29 12:26 46.81482 20.42823 32737 ft 396 kts 332°
2026-04-29 12:26 46.84033 20.41358 32269 ft 392 kts 331°
2026-04-29 12:27 46.86553 20.39907 31817 ft 386 kts 330°
2026-04-29 12:27 46.89035 20.38476 31381 ft 381 kts 330°
2026-04-29 12:27 46.91484 20.37064 30942 ft 376 kts 330°
2026-04-29 12:27 46.93897 20.35666 30506 ft 370 kts 329°
2026-04-29 12:28 46.96276 20.34286 30040 ft 365 kts 329°
2026-04-29 12:28 46.98619 20.32931 29607 ft 359 kts 329°
2026-04-29 12:28 47.00920 20.31598 29195 ft 352 kts 329°
2026-04-29 12:28 47.03178 20.30286 28785 ft 346 kts 329°
2026-04-29 12:29 47.05397 20.28994 28388 ft 341 kts 329°
2026-04-29 12:29 47.07580 20.27721 28002 ft 336 kts 329°
2026-04-29 12:29 47.09740 20.26459 27629 ft 332 kts 329°
2026-04-29 12:29 47.11871 20.25212 27254 ft 328 kts 329°
2026-04-29 12:30 47.13943 20.23888 26867 ft 320 kts 324°
2026-04-29 12:30 47.15787 20.22151 26489 ft 310 kts 316°
2026-04-29 12:30 47.17358 20.20052 26110 ft 302 kts 308°
2026-04-29 12:30 47.18780 20.17798 25758 ft 300 kts 308°
2026-04-29 12:31 47.20182 20.15586 25436 ft 300 kts 308°
2026-04-29 12:31 47.21603 20.13352 25071 ft 299 kts 309°
2026-04-29 12:31 47.23022 20.11117 24725 ft 298 kts 309°
2026-04-29 12:31 47.24436 20.08889 24381 ft 298 kts 309°
2026-04-29 12:32 47.25848 20.06662 24033 ft 297 kts 309°
2026-04-29 12:32 47.27257 20.04432 23650 ft 297 kts 309°
2026-04-29 12:32 47.28661 20.02209 23267 ft 296 kts 309°
2026-04-29 12:32 47.30061 19.99994 22900 ft 295 kts 309°
2026-04-29 12:33 47.31462 19.97781 22547 ft 295 kts 309°
2026-04-29 12:33 47.32859 19.95570 22170 ft 294 kts 310°
2026-04-29 12:33 47.34251 19.93364 21767 ft 293 kts 310°
2026-04-29 12:33 47.35638 19.91168 21381 ft 292 kts 310°
2026-04-29 12:34 47.37024 19.88976 20986 ft 292 kts 310°
2026-04-29 12:34 47.38406 19.86786 20593 ft 291 kts 310°
2026-04-29 12:34 47.39784 19.84596 20192 ft 291 kts 310°
2026-04-29 12:34 47.41150 19.82402 19791 ft 290 kts 310°
2026-04-29 12:35 47.42501 19.80198 19399 ft 289 kts 309°
2026-04-29 12:35 47.43840 19.77995 18999 ft 288 kts 309°
2026-04-29 12:35 47.45175 19.75795 18592 ft 287 kts 310°
2026-04-29 12:35 47.46509 19.73601 18162 ft 286 kts 310°
2026-04-29 12:36 47.47837 19.71417 17748 ft 285 kts 310°
2026-04-29 12:36 47.49163 19.69244 17353 ft 284 kts 310°
2026-04-29 12:36 47.50483 19.67078 16964 ft 283 kts 310°
2026-04-29 12:36 47.51795 19.64925 16577 ft 281 kts 310°
2026-04-29 12:37 47.53104 19.62777 16182 ft 280 kts 310°
2026-04-29 12:37 47.54404 19.60642 15797 ft 279 kts 310°
2026-04-29 12:37 47.55700 19.58508 15402 ft 278 kts 311°
2026-04-29 12:37 47.56987 19.56382 14992 ft 277 kts 311°
2026-04-29 12:38 47.58275 19.54255 14568 ft 277 kts 311°
2026-04-29 12:38 47.59561 19.52133 14156 ft 277 kts 311°
2026-04-29 12:38 47.60826 19.50027 14038 ft 271 kts 308°
2026-04-29 12:38 47.61676 19.47544 13915 ft 275 kts 284°
2026-04-29 12:39 47.61673 19.44698 13713 ft 283 kts 260°
2026-04-29 12:39 47.60726 19.42060 13019 ft 303 kts 230°
2026-04-29 12:39 47.59168 19.39983 12726 ft 300 kts 226°
2026-04-29 12:39 47.57603 19.37903 12121 ft 305 kts 227°
2026-04-29 12:40 47.56027 19.35762 11496 ft 310 kts 227°
2026-04-29 12:40 47.54445 19.33569 10976 ft 312 kts 227°
2026-04-29 12:40 47.52663 19.31741 10455 ft 321 kts 203°
2026-04-29 12:40 47.50440 19.31607 10260 ft 319 kts 165°
2026-04-29 12:41 47.48595 19.33276 10391 ft 315 kts 138°
2026-04-29 12:41 47.48094 19.33981 10116 ft 320 kts 135°